| time (UTC) | temp F | wind direction | speed knots | gust knots | rain 1hr in | rain 24hr in | rain mn in | humidity % | barometer mb |
| 20260507140334 | 56 | 225 | 2.6 | 2.6 | 0.00 | 0.22 | 0.22 | 75 | 1011.4 |
| 20260507135832 | 55 | 12 | 0.0 | 0.9 | 0.00 | 0.22 | 0.22 | 76 | 1011.1 |
| 20260507135328 | 56 | 319 | 2.6 | 2.6 | 0.00 | 0.22 | 0.22 | 75 | 1011.2 |
| 20260507134826 | 55 | 300 | 1.7 | 1.7 | 0.00 | 0.22 | 0.22 | 76 | 1011.3 |
| 20260507134322 | 54 | 240 | 7.8 | 9.6 | 0.00 | 0.22 | 0.22 | 76 | 1011.1 |
| 20260507133818 | 54 | 338 | 0.9 | 2.6 | 0.00 | 0.22 | 0.22 | 80 | 1011.1 |
| 20260507133314 | 55 | 6 | 1.7 | 1.7 | 0.00 | 0.22 | 0.22 | 82 | 1011.3 |
| 20260507132812 | 54 | 294 | 2.6 | 7.0 | 0.00 | 0.22 | 0.22 | 81 | 1011.2 |
| 20260507132308 | 53 | 248 | 3.5 | 5.2 | 0.00 | 0.22 | 0.22 | 84 | 1011.7 |
| 20260507131805 | 53 | 17 | 1.7 | 4.3 | 0.00 | 0.22 | 0.22 | 86 | 1011.3 |
| 20260507131302 | 52 | 46 | 0.9 | 1.7 | 0.00 | 0.22 | 0.22 | 88 | 1011.3 |
| 20260507130758 | 52 | 41 | 0.0 | 5.2 | 0.00 | 0.22 | 0.22 | 88 | 1011.2 |
| 20260507130256 | 52 | 61 | 0.9 | 1.7 | 0.00 | 0.22 | 0.22 | 90 | 1011.2 |
| 20260507125755 | 52 | 350 | 0.0 | 1.7 | 0.00 | 0.22 | 0.22 | 91 | 1011.5 |
| 20260507125252 | 51 | 314 | 1.7 | 1.7 | 0.00 | 0.22 | 0.22 | 93 | 1011.3 |
| 20260507124749 | 51 | 277 | 1.7 | 2.6 | 0.00 | 0.22 | 0.22 | 96 | 1011.4 |
| 20260507124246 | 51 | 24 | 0.0 | 1.7 | 0.00 | 0.22 | 0.22 | 97 | 1011.3 |
| 20260507123744 | 50 | 20 | 0.9 | 2.6 | 0.00 | 0.22 | 0.22 | 99 | 1011.3 |
| 20260507123241 | 50 | 26 | 0.0 | 1.7 | 0.00 | 0.22 | 0.22 | 99 | 1011.2 |
| 20260507122737 | 50 | 6 | 0.0 | 0.9 | 0.00 | 0.22 | 0.22 | 99 | 1011.3 |
| 20260507122232 | 50 | 18 | 0.0 | 0.9 | 0.00 | 0.22 | 0.22 | 99 | 1011.5 |
| 20260507121728 | 50 | 7 | 0.9 | 2.6 | 0.00 | 0.22 | 0.22 | 99 | 1011.8 |
| 20260507121224 | 50 | 31 | 0.0 | 2.6 | 0.00 | 0.22 | 0.22 | 99 | 1011.6 |
| 20260507120721 | 50 | 327 | 0.9 | 1.7 | 0.00 | 0.22 | 0.22 | 99 | 1011.6 |
| 20260507120218 | 50 | 12 | 0.0 | 0.0 | 0.00 | 0.22 | 0.22 | 99 | 1011.2 |
| 20260507115714 | 49 | 10 | 0.0 | 0.0 | 0.00 | 0.22 | 0.22 | 99 | 1011.3 |
| 20260507115209 | 49 | 8 | 0.0 | 0.0 | 0.00 | 0.22 | 0.22 | 99 | 1011.3 |
| 20260507114705 | 49 | 357 | 0.0 | 0.0 | 0.00 | 0.22 | 0.22 | 99 | 1011.3 |
| 20260507114203 | 49 | 2 | 0.0 | 0.9 | 0.00 | 0.22 | 0.22 | 99 | 1010.9 |
| 20260507113700 | 49 | 0 | 0.0 | 0.0 | 0.00 | 0.22 | 0.22 | 99 | 1011.2 |
| 20260507113157 | 49 | 1 | 0.0 | 0.0 | 0.00 | 0.22 | 0.22 | 99 | 1011.5 |
| 20260507112655 | 49 | 324 | 0.0 | 0.0 | 0.00 | 0.22 | 0.22 | 99 | 1011.3 |
| 20260507112152 | 49 | 349 | 0.0 | 0.0 | 0.00 | 0.22 | 0.22 | 99 | 1011.0 |
| 20260507111649 | 49 | 0 | 0.0 | 0.9 | 0.00 | 0.22 | 0.22 | 99 | 1011.1 |
| 20260507111145 | 49 | 14 | 0.0 | 0.0 | 0.00 | 0.22 | 0.22 | 99 | 1010.8 |
| 20260507110641 | 49 | 9 | 0.0 | 0.0 | 0.07 | 0.22 | 0.22 | 99 | 1011.2 |
| 20260507110138 | 49 | 3 | 0.0 | 0.0 | 0.00 | 0.21 | 0.21 | 99 | 1010.9 |
| 20260507105635 | 49 | 319 | 0.0 | 0.0 | 0.00 | 0.21 | 0.21 | 99 | 1011.0 |
| 20260507105131 | 49 | 343 | 0.0 | 0.0 | 0.00 | 0.21 | 0.21 | 99 | 1010.8 |
| 20260507104629 | 48 | 11 | 0.0 | 0.0 | 0.00 | 0.21 | 0.21 | 99 | 1010.6 |
| 20260507104125 | 48 | 23 | 0.0 | 0.0 | 0.00 | 0.21 | 0.21 | 99 | 1010.6 |
| 20260507103621 | 48 | 19 | 0.0 | 0.0 | 0.00 | 0.21 | 0.21 | 99 | 1010.7 |
| 20260507103118 | 48 | 20 | 0.0 | 0.0 | 0.05 | 0.21 | 0.21 | 99 | 1010.6 |
| 20260507102615 | 48 | 20 | 0.0 | 0.0 | 0.00 | 0.20 | 0.20 | 99 | 1010.9 |
| 20260507102111 | 48 | 19 | 0.0 | 0.0 | 0.00 | 0.20 | 0.20 | 99 | 1011.0 |
| 20260507101607 | 48 | 16 | 0.0 | 0.0 | 0.00 | 0.20 | 0.20 | 99 | 1011.1 |
| 20260507101103 | 48 | 16 | 0.0 | 0.0 | 0.07 | 0.20 | 0.20 | 99 | 1011.3 |
| 20260507100600 | 48 | 323 | 0.0 | 0.0 | 0.05 | 0.19 | 0.19 | 99 | 1010.8 |
| 20260507100058 | 48 | 30 | 0.0 | 0.0 | 0.05 | 0.19 | 0.19 | 99 | 1010.8 |
| 20260507095556 | 48 | 22 | 0.0 | 0.0 | 0.00 | 0.18 | 0.18 | 99 | 1010.8 |
| 20260507095052 | 48 | 25 | 0.0 | 0.0 | 0.00 | 0.18 | 0.18 | 99 | 1010.9 |
| 20260507094548 | 48 | 6 | 0.0 | 0.0 | 0.07 | 0.18 | 0.18 | 99 | 1010.9 |
| 20260507094046 | 48 | 292 | 0.9 | 0.9 | 0.07 | 0.18 | 0.18 | 99 | 1010.6 |
| 20260507093543 | 48 | 14 | 0.0 | 0.0 | 0.00 | 0.17 | 0.17 | 99 | 1010.1 |
| 20260507093042 | 48 | 19 | 0.0 | 0.0 | 0.05 | 0.17 | 0.17 | 99 | 1010.3 |
| 20260507092537 | 48 | 9 | 0.0 | 0.0 | 0.07 | 0.16 | 0.16 | 99 | 1010.7 |
| 20260507092035 | 48 | 353 | 0.0 | 1.7 | 0.07 | 0.16 | 0.16 | 99 | 1010.5 |
| 20260507091531 | 48 | 0 | 0.0 | 0.0 | 0.00 | 0.15 | 0.15 | 99 | 1010.5 |
| 20260507091027 | 48 | 13 | 0.0 | 0.0 | 0.00 | 0.15 | 0.15 | 99 | 1010.4 |
| 20260507090523 | 49 | 10 | 0.0 | 0.0 | 0.00 | 0.15 | 0.15 | 99 | 1010.2 |
| 20260507090020 | 49 | 315 | 0.0 | 0.0 | 0.05 | 0.15 | 0.15 | 99 | 1010.4 |
| 20260507085518 | 49 | 20 | 0.0 | 0.0 | 0.12 | 0.15 | 0.15 | 99 | 1010.4 |
| 20260507085014 | 49 | 23 | 0.0 | 0.9 | 0.12 | 0.14 | 0.14 | 99 | 1010.4 |
| 20260507084511 | 49 | 13 | 0.0 | 0.9 | 0.05 | 0.13 | 0.13 | 99 | 1010.4 |
| 20260507084008 | 49 | 9 | 0.0 | 0.9 | 0.07 | 0.12 | 0.12 | 99 | 1010.5 |
| 20260507083504 | 49 | 7 | 0.0 | 0.0 | 0.14 | 0.12 | 0.12 | 99 | 1010.6 |
| 20260507083001 | 49 | 19 | 0.0 | 0.0 | 0.12 | 0.11 | 0.11 | 98 | 1010.4 |
| 20260507082457 | 50 | 8 | 0.0 | 0.0 | 0.12 | 0.10 | 0.10 | 98 | 1010.2 |
| 20260507081953 | 50 | 6 | 0.0 | 0.0 | 0.12 | 0.09 | 0.09 | 98 | 1010.5 |
| 20260507081449 | 50 | 5 | 0.0 | 0.0 | 0.05 | 0.08 | 0.08 | 97 | 1010.2 |
| 20260507080947 | 50 | 8 | 0.0 | 0.0 | 0.07 | 0.07 | 0.07 | 97 | 1010.2 |
| 20260507080442 | 50 | 25 | 0.0 | 0.0 | 0.07 | 0.07 | 0.07 | 97 | 1010.4 |
| 20260507075938 | 50 | 18 | 0.0 | 0.0 | 0.05 | 0.06 | 0.06 | 97 | 1010.5 |
| 20260507075435 | 50 | 7 | 0.0 | 0.9 | 0.05 | 0.06 | 0.06 | 96 | 1011.0 |
| 20260507074931 | 51 | 9 | 0.0 | 0.9 | 0.00 | 0.05 | 0.05 | 96 | 1010.7 |
| 20260507074428 | 51 | 26 | 0.9 | 1.7 | 0.07 | 0.05 | 0.05 | 95 | 1010.4 |
| 20260507073926 | 51 | 346 | 0.9 | 0.9 | 0.12 | 0.05 | 0.05 | 94 | 1010.5 |
| 20260507073422 | 52 | 4 | 0.0 | 1.7 | 0.12 | 0.04 | 0.04 | 93 | 1010.3 |
| 20260507072919 | 52 | 238 | 1.7 | 2.6 | 0.12 | 0.03 | 0.03 | 91 | 1010.5 |
| 20260507072417 | 53 | 249 | 2.6 | 2.6 | 0.05 | 0.02 | 0.02 | 90 | 1010.1 |
| 20260507071914 | 53 | 356 | 0.0 | 1.7 | 0.00 | 0.01 | 0.01 | 89 | 1009.8 |
| 20260507071411 | 53 | 7 | 0.9 | 0.9 | 0.00 | 0.01 | 0.01 | 89 | 1009.5 |
| 20260507070907 | 54 | 8 | 0.0 | 0.9 | 0.00 | 0.01 | 0.01 | 88 | 1009.4 |
| 20260507070405 | 53 | 346 | 0.9 | 0.9 | 0.00 | 0.01 | 0.01 | 87 | 1009.0 |
| 20260507065901 | 54 | 4 | 0.9 | 0.9 | 0.00 | 0.01 | 0.01 | 86 | 1009.2 |
| 20260507065358 | 54 | 347 | 1.7 | 2.6 | 0.00 | 0.01 | 0.01 | 87 | 1009.3 |
| 20260507064855 | 54 | 2 | 0.9 | 1.7 | 0.00 | 0.01 | 0.01 | 87 | 1009.6 |
| 20260507064353 | 54 | 336 | 0.9 | 1.7 | 0.00 | 0.01 | 0.01 | 88 | 1009.6 |
| 20260507063851 | 54 | 352 | 0.9 | 1.7 | 0.00 | 0.01 | 0.01 | 89 | 1009.3 |
| 20260507063348 | 54 | 13 | 0.0 | 2.6 | 0.00 | 0.01 | 0.01 | 92 | 1009.5 |
| 20260507062845 | 55 | 10 | 0.0 | 0.9 | 0.00 | 0.01 | 0.01 | 96 | 1009.5 |
| 20260507062341 | 56 | 21 | 0.9 | 1.7 | 0.00 | 0.01 | 0.01 | 96 | 1009.4 |
| 20260507061839 | 56 | 17 | 0.9 | 0.9 | 0.00 | 0.01 | 0.01 | 96 | 1009.3 |
| 20260507061337 | 56 | 11 | 0.0 | 0.0 | 0.00 | 0.01 | 0.01 | 96 | 1009.3 |
| 20260507060835 | 56 | 18 | 0.0 | 0.9 | 0.00 | 0.01 | 0.01 | 96 | 1009.4 |
| 20260507060332 | 56 | 330 | 0.9 | 0.9 | 0.00 | 0.01 | 0.01 | 96 | 1009.4 |
| 20260507055829 | 56 | 58 | 0.0 | 1.7 | 0.00 | 0.01 | 0.01 | 96 | 1009.5 |
| 20260507055324 | 56 | 0 | 0.0 | 0.9 | 0.00 | 0.01 | 0.01 | 96 | 1009.7 |
| 20260507054821 | 56 | 359 | 0.9 | 0.9 | 0.00 | 0.01 | 0.01 | 95 | 1009.8 |
| 20260507054316 | 57 | 322 | 0.9 | 2.6 | 0.00 | 0.01 | 0.01 | 95 | 1009.7 |
| 20260507053814 | 57 | 264 | 1.7 | 2.6 | 0.00 | 0.01 | 0.01 | 95 | 1009.8 |
| 20260507053312 | 57 | 3 | 0.0 | 2.6 | 0.00 | 0.01 | 0.01 | 95 | 1009.9 |
| 20260507052811 | 57 | 12 | 0.0 | 0.0 | 0.00 | 0.01 | 0.01 | 95 | 1010.1 |
| 20260507052307 | 57 | 239 | 4.3 | 6.1 | 0.00 | 0.01 | 0.01 | 94 | 1010.1 |
| 20260507051805 | 57 | 315 | 2.6 | 4.3 | 0.00 | 0.01 | 0.01 | 95 | 1009.9 |
| 20260507051302 | 57 | 9 | 0.0 | 1.7 | 0.00 | 0.01 | 0.01 | 95 | 1009.8 |
| 20260507050758 | 57 | 323 | 2.6 | 5.2 | 0.00 | 0.01 | 0.01 | 96 | 1009.8 |
| 20260507050255 | 57 | 342 | 1.7 | 2.6 | 0.00 | 0.01 | 0.01 | 97 | 1009.4 |
| 20260507045752 | 57 | 300 | 1.7 | 6.1 | 0.00 | 0.01 | 0.01 | 98 | 1009.7 |
| 20260507045248 | 58 | 237 | 0.9 | 5.2 | 0.00 | 0.01 | 0.01 | 99 | 1009.9 |
| 20260507044746 | 58 | 11 | 0.0 | 0.0 | 0.00 | 0.01 | 0.01 | 99 | 1009.7 |
| 20260507044241 | 59 | 294 | 2.6 | 2.6 | 0.00 | 0.01 | 0.01 | 99 | 1009.7 |
| 20260507043738 | 59 | 346 | 0.0 | 1.7 | 0.00 | 0.01 | 0.01 | 99 | 1009.7 |
| 20260507043235 | 59 | 355 | 0.9 | 4.3 | 0.00 | 0.01 | 0.01 | 99 | 1009.6 |
| 20260507042731 | 59 | 340 | 0.9 | 1.7 | 0.00 | 0.01 | 0.01 | 99 | 1009.7 |
| 20260507042226 | 59 | 287 | 2.6 | 2.6 | 0.00 | 0.01 | 0.01 | 99 | 1009.6 |
| 20260507041724 | 59 | 261 | 1.7 | 2.6 | 0.00 | 0.01 | 0.01 | 99 | 1009.5 |
| 20260507041220 | 59 | 21 | 0.0 | 2.6 | 0.00 | 0.01 | 0.01 | 99 | 1009.6 |
| 20260507040718 | 59 | 264 | 0.9 | 1.7 | 0.07 | 0.01 | 0.01 | 99 | 1009.7 |
| 20260507040213 | 59 | 347 | 0.9 | 0.9 | 0.07 | 0.01 | 0.01 | 99 | 1009.6 |
| 20260507035710 | 59 | 4 | 0.0 | 2.6 | 0.00 | 0.07 | 0.07 | 99 | 1009.7 |
| 20260507035205 | 59 | 276 | 3.5 | 4.3 | 0.00 | 0.07 | 0.07 | 98 | 1009.6 |
| 20260507034702 | 59 | 278 | 0.9 | 1.7 | 0.00 | 0.07 | 0.07 | 98 | 1009.8 |
| 20260507034200 | 59 | 278 | 4.3 | 7.0 | 0.00 | 0.07 | 0.07 | 98 | 1009.9 |
| 20260507033658 | 60 | 304 | 3.5 | 5.2 | 0.00 | 0.07 | 0.07 | 97 | 1009.8 |
| 20260507033155 | 60 | 340 | 1.7 | 2.6 | 0.00 | 0.07 | 0.07 | 97 | 1009.7 |
| 20260507032653 | 59 | 318 | 3.5 | 5.2 | 0.00 | 0.07 | 0.07 | 97 | 1009.5 |
| 20260507032148 | 60 | 245 | 2.6 | 2.6 | 0.00 | 0.07 | 0.07 | 97 | 1009.5 |
| 20260507031645 | 59 | 313 | 6.1 | 7.0 | 0.00 | 0.07 | 0.07 | 97 | 1009.5 |
| 20260507031142 | 59 | 281 | 1.7 | 5.2 | 0.00 | 0.07 | 0.07 | 98 | 1009.5 |
| 20260507030638 | 59 | 246 | 5.2 | 6.1 | 0.00 | 0.07 | 0.07 | 98 | 1009.5 |
| 20260507030137 | 59 | 279 | 1.7 | 5.2 | 0.00 | 0.07 | 0.07 | 98 | 1009.2 |
| 20260507025633 | 59 | 350 | 0.9 | 5.2 | 0.00 | 0.07 | 0.07 | 98 | 1009.2 |
| 20260507025130 | 59 | 274 | 3.5 | 6.1 | 0.00 | 0.07 | 0.07 | 98 | 1009.4 |
| 20260507024628 | 59 | 294 | 0.9 | 5.2 | 0.00 | 0.07 | 0.07 | 98 | 1009.4 |
| 20260507024125 | 59 | 306 | 3.5 | 5.2 | 0.00 | 0.07 | 0.07 | 98 | 1009.3 |
| 20260507023621 | 59 | 205 | 6.1 | 9.6 | 0.00 | 0.07 | 0.07 | 98 | 1009.3 |
| 20260507023119 | 59 | 342 | 0.9 | 4.3 | 0.00 | 0.07 | 0.07 | 98 | 1009.2 |
| 20260507022615 | 59 | 325 | 0.9 | 4.3 | 0.00 | 0.07 | 0.07 | 98 | 1009.3 |
| 20260507022110 | 59 | 245 | 3.5 | 4.3 | 0.00 | 0.07 | 0.07 | 98 | 1009.5 |
| 20260507021607 | 59 | 307 | 1.7 | 4.3 | 0.00 | 0.07 | 0.07 | 98 | 1009.3 |
| 20260507021103 | 59 | 237 | 4.3 | 6.1 | 0.00 | 0.07 | 0.07 | 98 | 1009.4 |
| 20260507020602 | 59 | 279 | 0.9 | 6.1 | 0.00 | 0.07 | 0.07 | 98 | 1009.3 |
| 20260507020057 | 59 | 319 | 2.6 | 6.1 | 0.00 | 0.07 | 0.07 | 99 | 1009.4 |
| 20260507015556 | 59 | 284 | 2.6 | 7.8 | 0.00 | 0.07 | 0.07 | 99 | 1009.4 |
| 20260507015053 | 59 | 103 | 1.7 | 2.6 | 0.00 | 0.07 | 0.07 | 99 | 1009.3 |
| 20260507014549 | 59 | 278 | 0.0 | 5.2 | 0.00 | 0.07 | 0.07 | 99 | 1009.3 |
| 20260507014045 | 59 | 274 | 4.3 | 6.1 | 0.00 | 0.07 | 0.07 | 99 | 1009.3 |
| 20260507013542 | 58 | 267 | 0.9 | 5.2 | 0.00 | 0.07 | 0.07 | 99 | 1009.4 |
| 20260507013039 | 58 | 122 | 0.9 | 8.7 | 0.00 | 0.07 | 0.07 | 99 | 1009.3 |
| 20260507012536 | 58 | 300 | 1.7 | 6.1 | 0.00 | 0.07 | 0.07 | 99 | 1009.7 |
| 20260507012032 | 58 | 271 | 2.6 | 6.1 | 0.00 | 0.07 | 0.07 | 99 | 1009.7 |
| 20260507011530 | 58 | 292 | 2.6 | 7.0 | 0.00 | 0.07 | 0.07 | 99 | 1009.8 |
| 20260507011026 | 58 | 305 | 1.7 | 6.1 | 0.00 | 0.07 | 0.07 | 99 | 1009.7 |
| 20260507010520 | 58 | 251 | 2.6 | 7.8 | 0.00 | 0.07 | 0.07 | 99 | 1009.6 |
| 20260507010017 | 58 | 287 | 3.5 | 4.3 | 0.00 | 0.07 | 0.07 | 99 | 1009.8 |
| 20260507005515 | 58 | 288 | 3.5 | 8.7 | 0.00 | 0.07 | 0.07 | 99 | 1009.8 |
| 20260507005011 | 58 | 317 | 1.7 | 1.7 | 0.00 | 0.07 | 0.07 | 99 | 1009.8 |
| 20260507004508 | 58 | 303 | 0.0 | 4.3 | 0.00 | 0.07 | 0.07 | 99 | 1009.9 |
| 20260507004006 | 58 | 250 | 2.6 | 6.1 | 0.00 | 0.07 | 0.07 | 99 | 1009.7 |
| 20260507003501 | 58 | 272 | 0.0 | 4.3 | 0.00 | 0.07 | 0.07 | 99 | 1009.8 |
| 20260507002955 | 58 | 306 | 3.5 | 7.8 | 0.00 | 0.07 | 0.07 | 99 | 1009.8 |
| 20260507002453 | 58 | 342 | 1.7 | 5.2 | 0.00 | 0.07 | 0.07 | 99 | 1009.8 |
| 20260507001949 | 58 | 247 | 2.6 | 9.6 | 0.00 | 0.07 | 0.07 | 99 | 1009.6 |
| 20260507001446 | 58 | 354 | 0.0 | 5.2 | 0.00 | 0.07 | 0.07 | 99 | 1009.5 |
| 20260507000944 | 58 | 213 | 3.5 | 7.0 | 0.00 | 0.07 | 0.07 | 99 | 1009.6 |
| 20260507000439 | 58 | 292 | 6.1 | 7.8 | 0.00 | 0.07 | 0.07 | 99 | 1009.7 |
| 20260506235934 | 58 | 272 | 3.5 | 6.1 | 0.00 | 0.07 | 0.07 | 99 | 1009.7 |
| 20260506235432 | 58 | 237 | 3.5 | 7.0 | 0.00 | 0.07 | 0.07 | 99 | 1009.5 |
| 20260506234927 | 58 | 318 | 1.7 | 4.3 | 0.00 | 0.07 | 0.07 | 99 | 1009.4 |
| 20260506234426 | 58 | 238 | 1.7 | 2.6 | 0.00 | 0.07 | 0.07 | 99 | 1009.6 |
| 20260506233923 | 58 | 2 | 1.7 | 2.6 | 0.05 | 0.07 | 0.07 | 99 | 1009.2 |
| 20260506233419 | 58 | 350 | 1.7 | 2.6 | 0.05 | 0.07 | 0.07 | 99 | 1009.5 |
| 20260506232916 | 58 | 221 | 6.1 | 7.8 | 0.00 | 0.06 | 0.06 | 99 | 1009.2 |
| 20260506232412 | 58 | 312 | 1.7 | 2.6 | 0.00 | 0.06 | 0.06 | 99 | 1009.3 |
| 20260506231908 | 58 | 271 | 2.6 | 6.1 | 0.00 | 0.06 | 0.06 | 98 | 1009.3 |
| 20260506231406 | 58 | 310 | 4.3 | 5.2 | 0.00 | 0.06 | 0.06 | 98 | 1009.3 |
| 20260506230903 | 59 | 229 | 3.5 | 7.8 | 0.00 | 0.06 | 0.06 | 97 | 1009.4 |
| 20260506230400 | 59 | 327 | 1.7 | 5.2 | 0.00 | 0.06 | 0.06 | 97 | 1009.4 |
| 20260506225856 | 59 | 243 | 3.5 | 6.1 | 0.00 | 0.06 | 0.06 | 96 | 1009.3 |
| 20260506225353 | 59 | 335 | 3.5 | 6.1 | 0.00 | 0.06 | 0.06 | 96 | 1009.6 |
| 20260506224850 | 59 | 242 | 4.3 | 6.1 | 0.00 | 0.06 | 0.06 | 96 | 1009.5 |
| 20260506224348 | 59 | 207 | 3.5 | 5.2 | 0.00 | 0.06 | 0.06 | 96 | 1009.5 |
| 20260506223844 | 59 | 257 | 5.2 | 7.0 | 0.00 | 0.06 | 0.06 | 97 | 1009.2 |
| 20260506223339 | 59 | 253 | 2.6 | 4.3 | 0.00 | 0.06 | 0.06 | 97 | 1009.3 |
| 20260506222836 | 59 | 194 | 1.7 | 2.6 | 0.00 | 0.06 | 0.06 | 97 | 1009.3 |
| 20260506222332 | 59 | 286 | 2.6 | 7.0 | 0.00 | 0.06 | 0.06 | 97 | 1009.3 |
| 20260506221830 | 59 | 178 | 2.6 | 6.1 | 0.00 | 0.06 | 0.06 | 98 | 1009.5 |
| 20260506221327 | 59 | 268 | 4.3 | 8.7 | 0.00 | 0.06 | 0.06 | 99 | 1009.4 |
| 20260506220825 | 59 | 233 | 4.3 | 6.1 | 0.00 | 0.06 | 0.06 | 99 | 1009.6 |
| 20260506220320 | 59 | 292 | 1.7 | 7.8 | 0.00 | 0.06 | 0.06 | 99 | 1009.9 |
| 20260506215817 | 59 | 276 | 3.5 | 5.2 | 0.07 | 0.06 | 0.06 | 99 | 1009.9 |
| 20260506215313 | 59 | 207 | 4.3 | 6.1 | 0.07 | 0.06 | 0.06 | 98 | 1009.7 |
| 20260506214809 | 59 | 248 | 5.2 | 6.1 | 0.00 | 0.05 | 0.05 | 98 | 1009.8 |
| 20260506214305 | 59 | 176 | 0.9 | 1.7 | 0.00 | 0.05 | 0.05 | 98 | 1009.6 |
| 20260506213804 | 59 | 236 | 5.2 | 7.0 | 0.00 | 0.05 | 0.05 | 97 | 1009.8 |
| 20260506213300 | 59 | 251 | 3.5 | 5.2 | 0.00 | 0.05 | 0.05 | 97 | 1009.8 |
| 20260506212758 | 59 | 246 | 7.8 | 12.2 | 0.00 | 0.05 | 0.05 | 96 | 1010.1 |
| 20260506212254 | 60 | 256 | 3.5 | 6.1 | 0.00 | 0.05 | 0.05 | 96 | 1010.1 |
| 20260506211749 | 59 | 301 | 4.3 | 7.0 | 0.00 | 0.05 | 0.05 | 96 | 1009.9 |
| 20260506211245 | 59 | 298 | 1.7 | 5.2 | 0.00 | 0.05 | 0.05 | 97 | 1010.1 |
| 20260506210743 | 59 | 239 | 4.3 | 6.1 | 0.00 | 0.05 | 0.05 | 97 | 1010.2 |
| 20260506210239 | 59 | 183 | 4.3 | 7.8 | 0.07 | 0.05 | 0.05 | 97 | 1010.1 |
| 20260506205736 | 59 | 214 | 3.5 | 8.7 | 0.07 | 0.05 | 0.05 | 97 | 1010.3 |
| 20260506205232 | 60 | 211 | 1.7 | 7.8 | 0.05 | 0.04 | 0.04 | 96 | 1010.3 |
| 20260506204729 | 60 | 238 | 4.3 | 7.0 | 0.05 | 0.04 | 0.04 | 96 | 1010.3 |
| 20260506204226 | 60 | 241 | 6.1 | 9.6 | 0.07 | 0.03 | 0.03 | 95 | 1010.3 |
| 20260506203724 | 60 | 315 | 4.3 | 7.8 | 0.07 | 0.03 | 0.03 | 94 | 1010.2 |
| 20260506203215 | 60 | 325 | 3.5 | 11.3 | 0.00 | 0.02 | 0.02 | 93 | 1010.3 |
| 20260506202713 | 60 | 273 | 1.7 | 11.3 | 0.00 | 0.02 | 0.02 | 93 | 1010.4 |
| 20260506202209 | 60 | 9 | 0.9 | 9.6 | 0.00 | 0.02 | 0.02 | 93 | 1010.6 |
| 20260506201706 | 60 | 303 | 3.5 | 7.8 | 0.00 | 0.02 | 0.02 | 93 | 1010.6 |
| 20260506201203 | 60 | 223 | 6.1 | 8.7 | 0.00 | 0.02 | 0.02 | 93 | 1010.5 |
| 20260506200659 | 61 | 219 | 6.1 | 7.0 | 0.00 | 0.02 | 0.02 | 93 | 1010.4 |
| 20260506200156 | 61 | 270 | 2.6 | 5.2 | 0.00 | 0.02 | 0.02 | 93 | 1010.3 |
| 20260506195653 | 61 | 293 | 2.6 | 8.7 | 0.05 | 0.02 | 0.02 | 92 | 1010.4 |
| 20260506195149 | 61 | 247 | 2.6 | 5.2 | 0.00 | 0.01 | 0.01 | 91 | 1010.3 |
| 20260506194647 | 61 | 271 | 1.7 | 2.6 | 0.00 | 0.01 | 0.01 | 91 | 1010.3 |
| 20260506194143 | 62 | 295 | 3.5 | 7.8 | 0.00 | 0.01 | 0.01 | 89 | 1010.1 |
| 20260506193641 | 62 | 307 | 2.6 | 9.6 | 0.00 | 0.01 | 0.01 | 87 | 1010.3 |
| 20260506193138 | 62 | 278 | 6.1 | 12.2 | 0.07 | 0.01 | 0.01 | 86 | 1010.6 |
| 20260506192634 | 63 | 230 | 3.5 | 7.0 | 0.07 | 0.01 | 0.01 | 85 | 1010.6 |
| 20260506192130 | 63 | 297 | 4.3 | 7.0 | 0.00 | 0.00 | 0.00 | 84 | 1010.5 |
| 20260506191627 | 63 | 279 | 5.2 | 7.0 | 0.00 | 0.00 | 0.00 | 83 | 1010.5 |
| 20260506191123 | 63 | 160 | 1.7 | 8.7 | 0.00 | 0.00 | 0.00 | 83 | 1010.6 |
| 20260506190621 | 64 | 229 | 6.1 | 8.7 | 0.00 | 0.00 | 0.00 | 81 | 1010.6 |
| 20260506190118 | 64 | 269 | 4.3 | 12.2 | 0.00 | 0.00 | 0.00 | 79 | 1010.6 |
| 20260506185615 | 65 | 283 | 7.8 | 12.2 | 0.00 | 0.00 | 0.00 | 77 | 1010.7 |
| 20260506185111 | 66 | 255 | 5.2 | 11.3 | 0.00 | 0.00 | 0.00 | 75 | 1010.8 |
| 20260506184609 | 67 | 229 | 4.3 | 5.2 | 0.00 | 0.00 | 0.00 | 73 | 1010.7 |
| 20260506184106 | 67 | 262 | 4.3 | 7.0 | 0.00 | 0.00 | 0.00 | 72 | 1010.4 |
| 20260506183602 | 67 | 140 | 6.1 | 8.7 | 0.00 | 0.00 | 0.00 | 70 | 1010.6 |
| 20260506183058 | 68 | 214 | 4.3 | 11.3 | 0.00 | 0.00 | 0.00 | 70 | 1010.9 |
| 20260506182556 | 68 | 225 | 5.2 | 7.8 | 0.00 | 0.00 | 0.00 | 69 | 1010.9 |
| 20260506182053 | 68 | 195 | 5.2 | 9.6 | 0.00 | 0.00 | 0.00 | 68 | 1010.8 |
| 20260506181551 | 68 | 274 | 4.3 | 7.0 | 0.00 | 0.00 | 0.00 | 67 | 1010.8 |
| 20260506181047 | 69 | 259 | 7.0 | 11.3 | 0.00 | 0.00 | 0.00 | 66 | 1010.7 |
| 20260506180544 | 69 | 265 | 7.0 | 8.7 | 0.00 | 0.00 | 0.00 | 66 | 1010.8 |
| 20260506180040 | 69 | 222 | 8.7 | 12.2 | 0.00 | 0.00 | 0.00 | 65 | 1010.9 |
| 20260506175537 | 70 | 279 | 5.2 | 11.3 | 0.00 | 0.00 | 0.00 | 65 | 1010.9 |
| 20260506175033 | 70 | 255 | 3.5 | 6.1 | 0.00 | 0.00 | 0.00 | 65 | 1010.9 |
| 20260506174532 | 70 | 260 | 7.0 | 7.8 | 0.00 | 0.00 | 0.00 | 64 | 1010.8 |
| 20260506174028 | 70 | 298 | 5.2 | 9.6 | 0.00 | 0.00 | 0.00 | 64 | 1010.9 |
| 20260506173526 | 70 | 319 | 8.7 | 13.9 | 0.00 | 0.00 | 0.00 | 63 | 1011.2 |
| 20260506173022 | 70 | 196 | 7.0 | 19.1 | 0.00 | 0.00 | 0.00 | 63 | 1011.4 |
| 20260506172520 | 71 | 276 | 5.2 | 8.7 | 0.00 | 0.00 | 0.00 | 64 | 1011.2 |
| 20260506172016 | 71 | 233 | 2.6 | 9.6 | 0.00 | 0.00 | 0.00 | 61 | 1011.4 |
| 20260506171514 | 71 | 334 | 8.7 | 12.2 | 0.00 | 0.00 | 0.00 | 61 | 1011.2 |
| 20260506171011 | 71 | 279 | 5.2 | 11.3 | 0.00 | 0.00 | 0.00 | 61 | 1011.2 |
| 20260506170508 | 71 | 296 | 8.7 | 19.1 | 0.00 | 0.00 | 0.00 | 62 | 1011.2 |
| 20260506170006 | 71 | 229 | 2.6 | 13.0 | 0.00 | 0.00 | 0.00 | 62 | 1011.1 |
| 20260506165504 | 71 | 262 | 6.1 | 8.7 | 0.00 | 0.00 | 0.00 | 62 | 1011.0 |
| 20260506165000 | 72 | 279 | 7.0 | 17.4 | 0.00 | 0.00 | 0.00 | 61 | 1011.3 |
| 20260506164457 | 71 | 286 | 2.6 | 12.2 | 0.00 | 0.00 | 0.00 | 62 | 1011.5 |
| 20260506163954 | 71 | 228 | 7.0 | 15.6 | 0.00 | 0.00 | 0.00 | 62 | 1011.6 |
| 20260506163449 | 71 | 233 | 6.1 | 19.1 | 0.00 | 0.00 | 0.00 | 62 | 1011.8 |
| 20260506162944 | 71 | 260 | 6.1 | 11.3 | 0.00 | 0.00 | 0.00 | 63 | 1011.8 |
| 20260506162442 | 71 | 212 | 11.3 | 13.0 | 0.00 | 0.00 | 0.00 | 62 | 1011.9 |
| 20260506161934 | 71 | 231 | 4.3 | 13.0 | 0.00 | 0.00 | 0.00 | 62 | 1011.7 |
| 20260506161432 | 71 | 276 | 3.5 | 7.8 | 0.00 | 0.00 | 0.00 | 62 | 1011.9 |
| 20260506160929 | 71 | 258 | 7.0 | 12.2 | 0.00 | 0.00 | 0.00 | 62 | 1011.7 |
| 20260506160426 | 71 | 250 | 6.1 | 8.7 | 0.00 | 0.00 | 0.00 | 62 | 1011.8 |
| 20260506155923 | 71 | 219 | 7.8 | 9.6 | 0.00 | 0.00 | 0.00 | 61 | 1011.9 |
| 20260506155420 | 71 | 260 | 4.3 | 12.2 | 0.00 | 0.00 | 0.00 | 62 | 1012.0 |
| 20260506153542 | 71 | 281 | 3.5 | 9.6 | 0.00 | 0.00 | 0.00 | 64 | 1012.4 |
| 20260506153040 | 71 | 247 | 5.2 | 14.8 | 0.00 | 0.00 | 0.00 | 63 | 1012.6 |
| 20260506152537 | 72 | 247 | 7.8 | 12.2 | 0.00 | 0.00 | 0.00 | 63 | 1012.4 |
| 20260506152035 | 71 | 13 | 2.6 | 9.6 | 0.00 | 0.00 | 0.00 | 63 | 1012.7 |
| 20260506151532 | 70 | 238 | 3.5 | 7.0 | 0.00 | 0.00 | 0.00 | 65 | 1012.5 |
| 20260506151024 | 70 | 252 | 7.0 | 13.0 | 0.00 | 0.00 | 0.00 | 65 | 1012.7 |
| 20260506150520 | 70 | 187 | 1.7 | 9.6 | 0.00 | 0.00 | 0.00 | 65 | 1012.6 |
| 20260506150017 | 70 | 287 | 3.5 | 9.6 | 0.00 | 0.00 | 0.00 | 65 | 1012.6 |
| 20260506145514 | 70 | 246 | 7.0 | 9.6 | 0.00 | 0.00 | 0.00 | 66 | 1012.7 |
| 20260506145011 | 69 | 288 | 3.5 | 11.3 | 0.00 | 0.00 | 0.00 | 66 | 1012.7 |
| 20260506144507 | 70 | 237 | 12.2 | 14.8 | 0.00 | 0.00 | 0.00 | 65 | 1013.0 |
| 20260506144005 | 70 | 314 | 2.6 | 7.0 | 0.00 | 0.00 | 0.00 | 65 | 1012.4 |
| 20260506143502 | 70 | 260 | 5.2 | 18.2 | 0.00 | 0.00 | 0.00 | 66 | 1012.8 |
| 20260506143001 | 69 | 307 | 7.0 | 14.8 | 0.00 | 0.00 | 0.00 | 65 | 1012.7 |
| 20260506142458 | 69 | 276 | 5.2 | 14.8 | 0.00 | 0.00 | 0.00 | 65 | 1012.6 |
| 20260506141956 | 69 | 251 | 2.6 | 11.3 | 0.00 | 0.00 | 0.00 | 65 | 1012.3 |
| 20260506141454 | 70 | 254 | 4.3 | 13.0 | 0.00 | 0.00 | 0.00 | 65 | 1012.4 |
| 20260506140952 | 70 | 271 | 7.8 | 9.6 | 0.00 | 0.00 | 0.00 | 65 | 1012.4 |